QPF
0.05 0.03 0.02 0.03 0.03 0.04 0.04 0.04 0.05 0.05 0.05 0.06 0.06 0.05 0.05 0.05 0.05 0.05 0.04 0.03 0.03 0.03 0.04 0.05 0.07 0.08 0.07 0.06 0.07 0.07 0.07 0.07 0.09 0.09 0.09 0.09 0.09 0.10 0.08 0.06 0.08 0.09 0.10
0.05 0.04 0.03 0.03 0.03 0.05 0.06 0.05 0.05 0.05 0.05 0.06 0.06 0.06 0.07 0.06 0.04 0.04 0.04 0.02 0.02 0.01 0.02 0.03 0.04 0.05 0.06 0.06 0.07 0.06 0.06 0.06 0.07 0.08 0.08 0.07 0.07 0.07 0.06 0.07 0.09 0.09 0.09
0.06 0.05 0.04 0.03 0.03 0.05 0.06 0.04 0.04 0.05 0.06 0.06 0.06 0.07 0.07 0.06 0.04 0.04 0.03 0.02 0.01 0.02 0.02 0.02 0.03 0.04 0.05 0.06 0.07 0.08 0.08 0.07 0.07 0.08 0.09 0.08 0.08 0.07 0.07 0.07 0.10 0.11 0.10
0.13 0.09 0.06 0.05 0.04 0.04 0.06 0.05 0.03 0.04 0.05 0.05 0.06 0.07 0.06 0.05 0.04 0.03 0.02 0.02 0.02 0.02 0.02 0.02 0.02 0.03 0.04 0.05 0.06 0.07 0.07 0.07 0.06 0.06 0.08 0.08 0.09 0.09 0.08 0.08 0.10 0.11 0.10
0.06 0.05 0.04 0.04 0.03 0.04 0.05 0.07 0.04 0.04 0.04 0.05 0.05 0.05 0.05 0.04 0.03 0.03 0.03 0.04 0.04 0.03 0.02 0.02 0.02 0.04 0.05 0.05 0.05 0.05 0.05 0.06 0.06 0.07 0.08 0.08 0.09 0.11 0.10 0.08 0.10 0.10 0.08
0.02 0.02 0.02 0.02 0.03 0.03 0.04 0.07 0.07 0.04 0.04 0.04 0.04 0.04 0.05 0.06 0.07 0.08 0.07 0.04 0.04 0.04 0.04 0.03 0.03 0.03 0.03 0.04 0.04 0.05 0.05 0.06 0.07 0.08 0.09 0.09 0.10 0.12 0.13 0.10 0.09 0.09 0.06
0.05 0.02 0.01 0.02 0.03 0.03 0.03 0.05 0.05 0.04 0.03 0.03 0.03 0.04 0.05 0.06 0.07 0.07 0.06 0.04 0.03 0.03 0.03 0.03 0.03 0.02 0.02 0.02 0.04 0.05 0.05 0.06 0.07 0.09 0.10 0.10 0.09 0.10 0.13 0.13 0.11 0.10 0.06
0.04 0.03 0.02 0.02 0.02 0.02 0.03 0.04 0.04 0.04 0.02 0.02 0.03 0.03 0.02 0.02 0.03 0.03 0.02 0.02 0.02 0.02 0.03 0.02 0.02 0.02 0.02 0.02 0.04 0.04 0.05 0.05 0.06 0.08 0.10 0.11 0.10 0.08 0.09 0.13 0.11 0.09 0.07
0.02 0.03 0.03 0.03 0.03 0.04 0.03 0.03 0.04 0.04 0.03 0.03 0.04 0.04 0.03 0.03 0.03 0.03 0.02 0.02 0.02 0.02 0.02 0.02 0.02 0.02 0.02 0.03 0.04 0.04 0.04 0.05 0.07 0.08 0.10 0.12 0.12 0.11 0.09 0.11 0.13 0.12 0.09
0.04 0.02 0.02 0.03 0.04 0.04 0.04 0.04 0.04 0.04 0.04 0.03 0.03 0.03 0.03 0.03 0.03 0.03 0.02 0.03 0.03 0.02 0.02 0.02 0.03 0.03 0.02 0.03 0.04 0.04 0.04 0.05 0.06 0.06 0.07 0.08 0.08 0.09 0.09 0.09 0.10 0.10 0.10
0.02 0.02 0.03 0.04 0.05 0.05 0.06 0.07 0.07 0.08 0.07 0.03 0.03 0.03 0.03 0.03 0.03 0.03 0.02 0.02 0.02 0.02 0.02 0.02 0.03 0.03 0.03 0.04 0.04 0.04 0.04 0.04 0.04 0.04 0.04 0.04 0.04 0.06 0.06 0.07 0.08 0.08 0.09
0.02 0.03 0.03 0.03 0.03 0.04 0.06 0.07 0.07 0.07 0.06 0.05 0.05 0.03 0.02 0.02 0.02 0.02 0.01 0.01 0.01 0.01 0.01 0.01 0.02 0.03 0.03 0.03 0.03 0.03 0.03 0.04 0.04 0.03 0.04 0.04 0.04 0.04 0.04 0.05 0.06 0.07 0.08
0.03 0.03 0.03 0.03 0.02 0.03 0.03 0.04 0.05 0.06 0.06 0.07 0.07 0.06 0.04 0.03 0.03 0.03 0.03 0.01 0.01 0.01 0.01 0.01 0.03 0.03 0.03 0.03 0.03 0.03 0.03 0.04 0.04 0.03 0.03 0.03 0.03 0.04 0.05 0.05 0.05 0.06 0.07
0.01 0.02 0.02 0.03 0.03 0.03 0.03 0.02 0.02 0.03 0.03 0.04 0.05 0.05 0.04 0.03 0.03 0.03 0.03 0.02 0.02 0.02 0.02 0.02 0.03 0.03 0.02 0.02 0.02 0.03 0.03 0.03 0.03 0.03 0.03 0.03 0.03 0.03 0.04 0.05 0.06 0.07 0.07
0.01 0.01 0.02 0.02 0.02 0.02 0.03 0.03 0.03 0.03 0.03 0.03 0.04 0.04 0.02 0.03 0.03 0.03 0.02 0.02 0.02 0.02 0.03 0.02 0.03 0.02 0.02 0.01 0.02 0.02 0.02 0.02 0.03 0.04 0.04 0.03 0.02 0.01 0.01 0.02 0.04 0.06 0.07
0.01 0.01 0.01 0.01 0.02 0.02 0.03 0.03 0.03 0.03 0.04 0.03 0.03 0.03 0.02 0.03 0.04 0.04 0.03 0.03 0.03 0.03 0.03 0.03 0.03 0.03 0.01 0.00 0.01 0.01 0.02 0.03 0.03 0.04 0.04 0.03 0.02 0.01 0.01 0.00 0.01 0.02 0.05
0.01 0.01 0.01 0.01 0.02 0.04 0.05 0.04 0.03 0.03 0.04 0.04 0.04 0.03 0.03 0.04 0.04 0.05 0.04 0.03 0.04 0.03 0.03 0.02 0.03 0.03 0.03 0.01 0.01 0.01 0.02 0.03 0.03 0.05 0.04 0.03 0.01 0.01 0.02 0.02 0.01 0.01 0.01
0.02 0.02 0.02 0.02 0.03 0.05 0.05 0.04 0.03 0.04 0.04 0.05 0.05 0.05 0.05 0.05 0.04 0.06 0.06 0.04 0.03 0.03 0.03 0.03 0.02 0.03 0.03 0.01 0.01 0.01 0.02 0.03 0.03 0.05 0.05 0.04 0.03 0.02 0.02 0.03 0.04 0.03 0.02
0.02 0.01 0.02 0.03 0.04 0.05 0.05 0.04 0.03 0.04 0.04 0.05 0.06 0.07 0.07 0.07 0.06 0.06 0.06 0.04 0.03 0.03 0.03 0.03 0.03 0.03 0.03 0.02 0.03 0.04 0.05 0.05 0.06 0.05 0.05 0.04 0.02 0.02 0.02 0.04 0.05 0.05 0.02
0.02 0.01 0.01 0.02 0.03 0.04 0.03 0.03 0.03 0.03 0.04 0.05 0.07 0.07 0.07 0.07 0.06 0.05 0.05 0.04 0.04 0.03 0.03 0.03 0.03 0.04 0.04 0.03 0.03 0.02 0.04 0.05 0.05 0.05 0.04 0.03 0.02 0.02 0.02 0.04 0.05 0.05 0.04
0.01 0.01 0.01 0.01 0.01 0.02 0.03 0.03 0.03 0.03 0.03 0.04 0.05 0.05 0.05 0.05 0.05 0.05 0.05 0.04 0.04 0.04 0.03 0.03 0.03 0.03 0.02 0.01 0.01 0.01 0.01 0.02 0.03 0.04 0.03 0.02 0.01 0.02 0.03 0.04 0.04 0.04 0.03
0.01 0.01 0.01 0.02 0.02 0.02 0.02 0.03 0.04 0.03 0.02 0.02 0.02 0.03 0.04 0.04 0.04 0.04 0.04 0.04 0.03 0.03 0.04 0.04 0.04 0.03 0.01 0.00 0.00 0.00 0.00 0.00 0.01 0.02 0.03 0.02 0.01 0.02 0.01 0.02 0.03 0.02 0.02
0.01 0.01 0.01 0.01 0.02 0.02 0.02 0.03 0.04 0.03 0.02 0.02 0.03 0.04 0.05 0.05 0.03 0.03 0.03 0.03 0.02 0.02 0.03 0.02 0.02 0.02 0.01 0.00 0.00 0.00 0.00 0.00 0.00 0.01 0.01 0.01 0.01 0.01 0.01 0.02 0.02 0.03 0.03
0.01 0.01 0.01 0.01 0.02 0.02 0.02 0.03 0.03 0.03 0.03 0.03 0.04 0.05 0.06 0.07 0.06 0.04 0.03 0.03 0.02 0.01 0.02 0.01 0.02 0.02 0.01 0.01 0.00 0.00 0.00 0.00 0.01 0.00 0.00 0.01 0.01 0.01 0.01 0.01 0.02 0.02 0.03
0.01 0.01 0.01 0.01 0.02 0.02 0.02 0.03 0.03 0.03 0.04 0.05 0.05 0.04 0.04 0.05 0.06 0.06 0.05 0.04 0.02 0.01 0.01 0.01 0.01 0.01 0.02 0.01 0.01 0.01 0.01 0.01 0.01 0.02 0.02 0.02 0.02 0.02 0.02 0.01 0.01 0.02 0.03
0.01 0.02 0.02 0.02 0.02 0.02 0.02 0.02 0.03 0.03 0.04 0.03 0.03 0.03 0.02 0.02 0.03 0.04 0.04 0.04 0.04 0.02 0.01 0.01 0.00 0.01 0.01 0.00 0.01 0.01 0.01 0.03 0.04 0.03 0.02 0.03 0.03 0.03 0.02 0.01 0.01 0.02 0.02
MSLP
1011.81 1011.94 1012.12 1012.33 1012.57 1012.83 1013.12 1013.43 1013.77 1014.12 1014.49 1014.86 1015.22 1015.56 1015.86 1016.10 1016.29 1016.42 1016.50 1016.54 1016.56 1016.58 1016.60 1016.63 1016.66 1016.68 1016.69 1016.67 1016.60 1016.48 1016.31 1016.08 1015.79 1015.47 1015.10 1014.71 1014.31 1013.92 1013.55 1013.23 1012.98 1012.81 1012.74
1011.64 1011.85 1012.10 1012.36 1012.62 1012.89 1013.17 1013.48 1013.81 1014.18 1014.57 1014.97 1015.37 1015.73 1016.05 1016.29 1016.46 1016.56 1016.62 1016.64 1016.66 1016.68 1016.73 1016.78 1016.85 1016.90 1016.92 1016.90 1016.83 1016.70 1016.50 1016.25 1015.96 1015.62 1015.26 1014.88 1014.49 1014.11 1013.74 1013.42 1013.17 1012.99 1012.90
1011.46 1011.82 1012.18 1012.53 1012.85 1013.14 1013.42 1013.71 1014.03 1014.39 1014.78 1015.20 1015.61 1015.98 1016.29 1016.52 1016.68 1016.75 1016.78 1016.78 1016.79 1016.81 1016.86 1016.93 1017.01 1017.08 1017.11 1017.10 1017.02 1016.88 1016.67 1016.41 1016.11 1015.78 1015.43 1015.07 1014.70 1014.34 1014.00 1013.70 1013.45 1013.28 1013.20
1011.33 1011.88 1012.41 1012.88 1013.29 1013.62 1013.91 1014.19 1014.48 1014.81 1015.18 1015.57 1015.96 1016.32 1016.62 1016.83 1016.96 1017.00 1017.00 1016.97 1016.95 1016.95 1016.99 1017.06 1017.15 1017.22 1017.26 1017.25 1017.17 1017.02 1016.82 1016.56 1016.26 1015.95 1015.61 1015.28 1014.94 1014.61 1014.29 1014.02 1013.79 1013.63 1013.55
1011.31 1012.08 1012.80 1013.43 1013.94 1014.33 1014.64 1014.89 1015.14 1015.42 1015.73 1016.08 1016.42 1016.75 1017.01 1017.19 1017.29 1017.30 1017.26 1017.20 1017.14 1017.12 1017.13 1017.18 1017.26 1017.33 1017.37 1017.36 1017.28 1017.15 1016.95 1016.70 1016.42 1016.12 1015.81 1015.49 1015.18 1014.87 1014.58 1014.32 1014.11 1013.96 1013.88
1011.48 1012.46 1013.37 1014.15 1014.76 1015.21 1015.53 1015.76 1015.95 1016.16 1016.40 1016.67 1016.95 1017.22 1017.43 1017.57 1017.62 1017.60 1017.52 1017.42 1017.33 1017.27 1017.25 1017.27 1017.33 1017.38 1017.42 1017.41 1017.35 1017.23 1017.05 1016.82 1016.56 1016.28 1015.98 1015.68 1015.38 1015.08 1014.80 1014.55 1014.34 1014.18 1014.09
1011.88 1013.02 1014.08 1014.98 1015.68 1016.16 1016.48 1016.67 1016.80 1016.92 1017.07 1017.25 1017.45 1017.65 1017.81 1017.90 1017.91 1017.85 1017.74 1017.61 1017.48 1017.38 1017.32 1017.31 1017.34 1017.37 1017.40 1017.39 1017.34 1017.24 1017.09 1016.88 1016.65 1016.38 1016.10 1015.80 1015.50 1015.20 1014.91 1014.64 1014.41 1014.24 1014.13
1012.49 1013.73 1014.88 1015.85 1016.58 1017.07 1017.36 1017.50 1017.56 1017.60 1017.65 1017.74 1017.85 1017.97 1018.07 1018.12 1018.10 1018.01 1017.88 1017.72 1017.56 1017.43 1017.34 1017.29 1017.28 1017.29 1017.30 1017.30 1017.25 1017.17 1017.04 1016.86 1016.64 1016.40 1016.12 1015.82 1015.51 1015.19 1014.87 1014.58 1014.32 1014.11 1013.98
1013.29 1014.54 1015.69 1016.65 1017.36 1017.82 1018.07 1018.15 1018.13 1018.08 1018.05 1018.05 1018.08 1018.14 1018.19 1018.20 1018.15 1018.06 1017.91 1017.74 1017.57 1017.41 1017.29 1017.20 1017.16 1017.14 1017.13 1017.11 1017.07 1017.00 1016.89 1016.74 1016.54 1016.30 1016.03 1015.72 1015.39 1015.05 1014.70 1014.37 1014.08 1013.84 1013.67
1014.16 1015.34 1016.42 1017.30 1017.94 1018.33 1018.51 1018.52 1018.44 1018.32 1018.21 1018.15 1018.12 1018.12 1018.13 1018.13 1018.08 1017.98 1017.85 1017.68 1017.51 1017.34 1017.19 1017.08 1017.00 1016.95 1016.91 1016.87 1016.83 1016.76 1016.66 1016.52 1016.33 1016.11 1015.84 1015.53 1015.18 1014.81 1014.44 1014.08 1013.75 1013.48 1013.28
1014.99 1016.04 1016.97 1017.72 1018.25 1018.55 1018.65 1018.60 1018.47 1018.30 1018.15 1018.04 1017.97 1017.95 1017.94 1017.93 1017.90 1017.83 1017.72 1017.58 1017.41 1017.25 1017.09 1016.96 1016.84 1016.75 1016.68 1016.61 1016.54 1016.46 1016.36 1016.23 1016.06 1015.84 1015.57 1015.26 1014.91 1014.53 1014.14 1013.76 1013.42 1013.13 1012.91
1015.68 1016.55 1017.30 1017.89 1018.29 1018.49 1018.52 1018.42 1018.26 1018.07 1017.90 1017.78 1017.71 1017.68 1017.67 1017.68 1017.67 1017.63 1017.56 1017.45 1017.32 1017.17 1017.01 1016.86 1016.72 1016.59 1016.47 1016.36 1016.26 1016.16 1016.05 1015.91 1015.74 1015.54 1015.28 1014.98 1014.63 1014.26 1013.87 1013.50 1013.15 1012.86 1012.63
1016.12 1016.81 1017.38 1017.81 1018.07 1018.19 1018.17 1018.05 1017.89 1017.71 1017.56 1017.45 1017.39 1017.37 1017.38 1017.41 1017.43 1017.44 1017.41 1017.35 1017.25 1017.12 1016.97 1016.81 1016.64 1016.47 1016.31 1016.15 1016.01 1015.88 1015.75 1015.60 1015.43 1015.23 1014.99 1014.71 1014.39 1014.03 1013.67 1013.30 1012.97 1012.69 1012.47
1016.30 1016.81 1017.22 1017.51 1017.67 1017.73 1017.69 1017.59 1017.45 1017.31 1017.20 1017.12 1017.08 1017.09 1017.12 1017.17 1017.23 1017.27 1017.28 1017.26 1017.20 1017.09 1016.95 1016.78 1016.59 1016.38 1016.18 1015.98 1015.79 1015.62 1015.46 1015.30 1015.13 1014.94 1014.72 1014.46 1014.17 1013.85 1013.51 1013.18 1012.88 1012.61 1012.40
1016.21 1016.59 1016.88 1017.06 1017.17 1017.19 1017.17 1017.10 1017.02 1016.94 1016.87 1016.84 1016.83 1016.86 1016.91 1016.98 1017.05 1017.12 1017.16 1017.17 1017.13 1017.05 1016.91 1016.74 1016.52 1016.29 1016.04 1015.81 1015.58 1015.38 1015.19 1015.02 1014.85 1014.67 1014.47 1014.24 1013.98 1013.69 1013.39 1013.09 1012.81 1012.56 1012.36
1015.93 1016.22 1016.43 1016.56 1016.63 1016.67 1016.68 1016.66 1016.65 1016.63 1016.63 1016.63 1016.66 1016.70 1016.75 1016.82 1016.90 1016.96 1017.01 1017.03 1017.01 1016.93 1016.80 1016.62 1016.39 1016.13 1015.86 1015.59 1015.34 1015.11 1014.91 1014.73 1014.56 1014.39 1014.21 1014.00 1013.77 1013.51 1013.24 1012.97 1012.70 1012.47 1012.27
1015.56 1015.79 1015.96 1016.07 1016.15 1016.22 1016.27 1016.33 1016.38 1016.42 1016.46 1016.51 1016.55 1016.59 1016.63 1016.68 1016.74 1016.78 1016.82 1016.82 1016.79 1016.70 1016.57 1016.38 1016.14 1015.87 1015.58 1015.30 1015.04 1014.80 1014.59 1014.41 1014.25 1014.09 1013.92 1013.73 1013.52 1013.28 1013.02 1012.75 1012.49 1012.25 1012.04
1015.19 1015.41 1015.56 1015.68 1015.78 1015.89 1015.99 1016.10 1016.21 1016.30 1016.38 1016.44 1016.48 1016.51 1016.52 1016.54 1016.55 1016.55 1016.54 1016.51 1016.44 1016.34 1016.18 1015.98 1015.74 1015.47 1015.18 1014.91 1014.65 1014.42 1014.23 1014.06 1013.91 1013.76 1013.60 1013.42 1013.21 1012.96 1012.69 1012.41 1012.14 1011.88 1011.65
1014.91 1015.13 1015.29 1015.43 1015.56 1015.69 1015.84 1015.99 1016.13 1016.25 1016.35 1016.41 1016.44 1016.44 1016.42 1016.38 1016.33 1016.27 1016.20 1016.11 1016.00 1015.85 1015.67 1015.45 1015.20 1014.94 1014.68 1014.42 1014.20 1014.00 1013.83 1013.69 1013.56 1013.42 1013.26 1013.07 1012.84 1012.57 1012.28 1011.97 1011.66 1011.36 1011.10
1014.78 1015.01 1015.18 1015.33 1015.47 1015.62 1015.79 1015.96 1016.12 1016.25 1016.35 1016.40 1016.41 1016.38 1016.31 1016.21 1016.09 1015.96 1015.82 1015.66 1015.48 1015.29 1015.07 1014.84 1014.59 1014.34 1014.11 1013.89 1013.71 1013.55 1013.43 1013.31 1013.20 1013.07 1012.91 1012.70 1012.44 1012.14 1011.80 1011.45 1011.09 1010.76 1010.46
1014.81 1015.03 1015.21 1015.36 1015.50 1015.66 1015.82 1015.99 1016.15 1016.27 1016.36 1016.40 1016.39 1016.33 1016.21 1016.06 1015.88 1015.67 1015.45 1015.22 1014.97 1014.72 1014.46 1014.21 1013.96 1013.73 1013.53 1013.36 1013.23 1013.12 1013.04 1012.96 1012.87 1012.74 1012.57 1012.33 1012.04 1011.70 1011.31 1010.91 1010.51 1010.14 1009.81
1014.95 1015.17 1015.34 1015.48 1015.62 1015.76 1015.90 1016.05 1016.19 1016.31 1016.38 1016.41 1016.38 1016.29 1016.14 1015.94 1015.70 1015.43 1015.13 1014.83 1014.51 1014.20 1013.91 1013.63 1013.38 1013.17 1013.00 1012.87 1012.78 1012.72 1012.68 1012.63 1012.55 1012.42 1012.23 1011.97 1011.65 1011.26 1010.83 1010.39 1009.96 1009.56 1009.22
1015.14 1015.36 1015.52 1015.64 1015.75 1015.86 1015.98 1016.11 1016.23 1016.33 1016.39 1016.41 1016.36 1016.26 1016.08 1015.85 1015.57 1015.24 1014.88 1014.51 1014.14 1013.78 1013.44 1013.14 1012.88 1012.68 1012.54 1012.44 1012.39 1012.36 1012.34 1012.30 1012.23 1012.09 1011.88 1011.59 1011.24 1010.82 1010.37 1009.91 1009.47 1009.07 1008.74
1015.31 1015.52 1015.66 1015.77 1015.86 1015.94 1016.04 1016.13 1016.23 1016.32 1016.37 1016.38 1016.33 1016.22 1016.03 1015.78 1015.46 1015.10 1014.69 1014.27 1013.84 1013.44 1013.06 1012.74 1012.47 1012.28 1012.14 1012.06 1012.02 1012.01 1011.99 1011.95 1011.85 1011.70 1011.46 1011.16 1010.78 1010.35 1009.89 1009.44 1009.02 1008.65 1008.35
1015.40 1015.60 1015.73 1015.82 1015.89 1015.95 1016.02 1016.10 1016.18 1016.26 1016.30 1016.31 1016.26 1016.15 1015.95 1015.69 1015.35 1014.95 1014.52 1014.06 1013.60 1013.15 1012.75 1012.41 1012.13 1011.92 1011.78 1011.69 1011.64 1011.61 1011.57 1011.50 1011.38 1011.19 1010.93 1010.60 1010.22 1009.80 1009.36 1008.94 1008.56 1008.25 1008.01
1015.36 1015.56 1015.69 1015.77 1015.83 1015.88 1015.94 1016.00 1016.07 1016.13 1016.17 1016.17 1016.12 1016.00 1015.80 1015.53 1015.18 1014.76 1014.31 1013.82 1013.34 1012.88 1012.45 1012.09 1011.80 1011.57 1011.41 1011.29 1011.21 1011.14 1011.05 1010.93 1010.76 1010.53 1010.24 1009.90 1009.51 1009.11 1008.72 1008.36 1008.05 1007.82 1007.66
Thickness
5750 5748 5745 5742 5737 5732 5727 5723 5719 5715 5711 5706 5703 5698 5695 5692 5688 5684 5679 5676 5673 5671 5670 5668 5667 5665 5663 5661 5661 5659 5659 5660 5661 5661 5662 5666 5669 5669 5669 5670 5670 5670 5670
5742 5740 5738 5734 5730 5725 5721 5717 5713 5709 5705 5701 5697 5693 5689 5685 5681 5676 5672 5669 5666 5664 5663 5660 5659 5657 5656 5654 5653 5651 5650 5651 5652 5651 5651 5652 5656 5659 5662 5662 5663 5663 5664
5737 5734 5731 5728 5724 5720 5716 5712 5707 5703 5699 5695 5691 5687 5682 5679 5674 5669 5666 5663 5659 5656 5654 5652 5651 5649 5648 5646 5644 5643 5642 5641 5643 5644 5642 5641 5643 5646 5651 5653 5654 5655 5656
5734 5730 5726 5723 5719 5715 5711 5706 5701 5697 5692 5688 5684 5679 5674 5669 5666 5664 5660 5656 5653 5649 5646 5645 5643 5641 5639 5638 5637 5636 5635 5634 5633 5635 5637 5638 5638 5636 5637 5642 5645 5647 5648
5732 5725 5723 5719 5715 5711 5706 5700 5695 5690 5686 5682 5678 5673 5668 5664 5661 5657 5653 5649 5646 5643 5639 5638 5635 5633 5632 5630 5629 5628 5628 5627 5626 5627 5628 5630 5632 5633 5631 5632 5635 5637 5640
5730 5725 5722 5716 5711 5706 5701 5694 5687 5683 5680 5676 5672 5667 5662 5658 5653 5649 5645 5643 5640 5636 5633 5631 5628 5626 5624 5623 5622 5621 5620 5620 5620 5620 5621 5622 5623 5625 5626 5626 5628 5629 5632
5726 5722 5717 5711 5705 5700 5695 5689 5683 5677 5674 5669 5665 5661 5656 5652 5647 5644 5640 5636 5633 5629 5625 5623 5620 5618 5617 5616 5615 5613 5613 5613 5613 5614 5615 5616 5617 5619 5620 5621 5622 5623 5625
5725 5720 5714 5707 5700 5695 5689 5683 5678 5673 5668 5663 5659 5655 5651 5647 5643 5639 5635 5631 5627 5623 5620 5617 5614 5612 5610 5609 5608 5607 5607 5607 5607 5608 5609 5610 5612 5613 5615 5616 5615 5614 5616
5724 5717 5710 5703 5696 5690 5684 5679 5673 5668 5663 5659 5654 5649 5645 5642 5638 5634 5630 5626 5622 5619 5615 5612 5609 5606 5605 5603 5602 5601 5601 5601 5600 5601 5602 5603 5605 5607 5609 5611 5611 5609 5608
5718 5711 5705 5698 5692 5686 5680 5674 5669 5663 5659 5655 5650 5646 5641 5637 5633 5629 5624 5620 5616 5613 5610 5607 5604 5602 5600 5598 5597 5597 5596 5596 5595 5596 5596 5598 5599 5600 5602 5604 5606 5607 5606
5713 5706 5699 5694 5687 5681 5676 5669 5663 5657 5653 5649 5645 5640 5637 5633 5628 5624 5620 5616 5612 5608 5606 5603 5600 5598 5596 5594 5593 5592 5591 5591 5590 5590 5591 5591 5593 5593 5595 5598 5600 5602 5603
5708 5700 5694 5688 5682 5676 5671 5665 5659 5654 5649 5646 5641 5636 5632 5628 5624 5620 5616 5612 5608 5605 5602 5600 5597 5595 5593 5590 5588 5587 5586 5585 5584 5585 5585 5586 5588 5588 5589 5591 5593 5597 5599
5699 5694 5688 5682 5676 5671 5666 5661 5656 5651 5647 5643 5638 5632 5628 5624 5620 5616 5612 5608 5604 5601 5599 5596 5594 5591 5589 5587 5585 5582 5582 5581 5580 5580 5580 5581 5581 5582 5583 5585 5587 5590 5594
5694 5689 5683 5677 5672 5667 5662 5657 5652 5649 5644 5640 5634 5628 5624 5620 5616 5612 5608 5605 5601 5598 5595 5593 5591 5589 5586 5584 5581 5578 5577 5577 5577 5576 5576 5577 5577 5577 5578 5580 5582 5584 5586
5688 5683 5678 5673 5667 5663 5658 5654 5650 5645 5641 5636 5630 5625 5621 5617 5613 5609 5605 5602 5599 5596 5593 5590 5588 5586 5583 5580 5576 5574 5574 5573 5573 5573 5573 5573 5573 5573 5573 5575 5576 5578 5580
5683 5678 5673 5669 5664 5659 5655 5650 5645 5641 5637 5632 5627 5623 5619 5614 5610 5606 5603 5599 5596 5593 5590 5587 5585 5583 5580 5575 5573 5571 5570 5570 5570 5570 5570 5572 5572 5572 5571 5572 5572 5574 5575
5679 5674 5669 5664 5660 5656 5652 5646 5642 5638 5633 5628 5624 5620 5616 5612 5608 5605 5601 5597 5593 5590 5587 5585 5583 5580 5576 5574 5572 5570 5568 5568 5568 5568 5568 5569 5570 5569 5570 5570 5571 5572 5573
5675 5670 5665 5660 5657 5653 5648 5643 5639 5635 5630 5625 5622 5618 5614 5610 5606 5602 5598 5595 5592 5588 5585 5583 5581 5579 5576 5573 5570 5569 5567 5567 5568 5567 5567 5567 5567 5567 5567 5569 5570 5571 5572
5671 5666 5662 5657 5653 5649 5645 5640 5635 5631 5627 5623 5619 5616 5612 5607 5603 5600 5596 5593 5590 5587 5585 5583 5581 5579 5575 5572 5570 5567 5567 5568 5568 5568 5567 5567 5566 5565 5566 5567 5567 5569 5570
5666 5662 5658 5654 5649 5645 5642 5636 5632 5628 5624 5621 5617 5614 5610 5606 5602 5598 5595 5592 5589 5586 5584 5582 5581 5579 5576 5573 5570 5567 5567 5567 5567 5567 5567 5566 5566 5565 5564 5565 5566 5566 5568
5661 5657 5653 5649 5646 5643 5638 5633 5630 5625 5623 5620 5616 5612 5608 5604 5601 5597 5594 5591 5588 5586 5584 5582 5581 5580 5578 5575 5571 5569 5567 5567 5567 5567 5567 5567 5565 5564 5564 5563 5564 5565 5566
5655 5652 5649 5645 5643 5640 5635 5631 5627 5625 5622 5618 5614 5610 5606 5603 5601 5597 5594 5591 5588 5586 5584 5582 5582 5581 5580 5577 5574 5571 5568 5567 5566 5566 5567 5567 5566 5565 5564 5564 5565 5566 5566
5650 5648 5645 5642 5639 5637 5634 5629 5626 5624 5620 5615 5611 5608 5605 5602 5600 5597 5594 5591 5590 5587 5586 5585 5584 5583 5582 5579 5576 5572 5570 5568 5566 5567 5567 5566 5566 5566 5566 5567 5567 5566 5567
5645 5644 5642 5639 5636 5635 5632 5629 5626 5622 5618 5613 5610 5607 5604 5601 5599 5597 5596 5593 5591 5589 5588 5586 5585 5584 5583 5581 5577 5574 5572 5570 5568 5568 5568 5568 5568 5568 5568 5569 5570 5570 5571
5644 5642 5640 5637 5635 5633 5630 5628 5625 5621 5616 5613 5610 5607 5605 5603 5601 5599 5596 5595 5592 5590 5586 5586 5584 5583 5581 5579 5576 5573 5573 5571 5570 5567 5568 5570 5572 5572 5573 5574 5575 5575 5575
5643 5641 5639 5637 5635 5633 5630 5627 5624 5620 5616 5611 5609 5607 5606 5605 5603 5601 5599 5597 5594 5591 5588 5586 5584 5583 5581 5579 5577 5575 5572 5570 5567 5566 5570 5572 5573 5574 5576 5576 5577 5576 5576